Flag Weather past 2 weeks in Anderson, South Carolina, U.S.A.

Now
45 °F

Clear.


Feels Like: 45 °F
Forecast: 43 / 65 °F
Wind: No wind

Location: Anderson County Airport

Current Time: Oct 31, 2014 at 3:00:45 AM

Latest Report: Oct 31, 2014 at 1:56 AM


Visibility: 10 mi

Pressure: 29.95 "Hg

Humidity: 90%

Dew point: 42 °F

Location of AndersonLocation

Historic Weather in Anderson — Graph

°F

Anderson temperature yesterday

Maximum temperature yesterday: 67 °F (at 3:56 PM)
Minimum temperature yesterday: 41 °F (at 6:56 AM)
Average temperature yesterday: 53 °F

Past Weeks' High & Low Weather Summary

 TemperatureHumidityPressure
High84 °F (Oct 26, 3:56 PM)100% (Oct 23, 6:56 AM)30.14 "Hg (Oct 23, 6:56 AM)
Low37 °F (Oct 23, 6:56 AM)28% (Oct 26, 4:56 PM)29.80 "Hg (Oct 16, 5:56 AM)
Average59 °F71%29.99 "Hg
* Reported Oct 16 1:56 AM — Oct 31 1:56 AM, Anderson, Weather by CustomWeather, © 2014

Note: Actual official high and low records may vary slightly from our data, if they occured in-between our weather recording intervals... More about our weather records

Advertising

Anderson weather history for previous 24 hours

 ConditionsComfort  
Time TempWeatherWind HumidityBarometerVisibility
1:56 AM
Oct 31
45 °FClear.No wind90%29.95 "Hg10 mi
12:56 AM45 °FClear.No wind90%29.95 "Hg10 mi
11:56 PM
Oct 30
45 °FClear.No wind90%29.96 "Hg10 mi
10:56 PM47 °FClear.No wind86%29.96 "Hg10 mi
9:56 PM49 °FClear.No wind80%29.96 "Hg10 mi
8:56 PM50 °FClear.No wind80%29.97 "Hg10 mi
7:56 PM53 °FClear.No wind72%29.98 "Hg10 mi
6:56 PM59 °FSunny.No wind51%29.97 "Hg10 mi
5:56 PM64 °FSunny.6 mph38%29.96 "Hg10 mi
4:56 PM66 °FSunny.7 mph36%29.96 "Hg10 mi
3:56 PM67 °FSunny.No wind33%29.96 "Hg10 mi
2:56 PM66 °FSunny.6 mph36%29.98 "Hg10 mi
1:56 PM65 °FSunny.5 mph37%30.01 "Hg10 mi
12:56 PM65 °FSunny.7 mph37%30.03 "Hg10 mi
11:56 AM63 °FSunny.6 mph45%30.06 "Hg10 mi
10:56 AM59 °FSunny.5 mph51%30.08 "Hg10 mi
9:56 AM54 °FSunny.6 mph67%30.08 "Hg10 mi
8:56 AM48 °FSunny.No wind86%30.07 "Hg10 mi
7:56 AM41 °FClear.No wind93%30.06 "Hg10 mi
6:56 AM41 °FClear.No wind93%30.04 "Hg10 mi
5:56 AM42 °FClear.No wind92%30.03 "Hg10 mi
4:56 AM45 °FClear.No wind93%30.02 "Hg10 mi
3:56 AM43 °FClear.No wind97%30.01 "Hg10 mi
Weather by CustomWeather, © 2014

See weather overviewHow to use our weather pages